H1 CPF 2 NER 2022 4 17 9 107 01 glonass139 H2 1808601 9139 43687 2022 4 17 0 0 0 2022 4 20 23 45 0 900 1 1 0 0 0 1 H9 10 0 59686 0.00000 0 -820708.006 12923662.666 21992248.308 10 0 59686 900.00000 0 -2994506.748 11231677.263 22721176.303 10 0 59686 1800.00000 0 -5337109.416 9666799.839 23009580.140 10 0 59686 2700.00000 0 -7793634.938 8271263.250 22851875.881 10 0 59686 3600.00000 0 -10302595.439 7077085.127 22251108.875 10 0 59686 4500.00000 0 -12798240.329 6104873.108 21218896.247 10 0 59686 5400.00000 0 -15213090.093 5363122.058 19775206.051 10 0 59686 6300.00000 0 -17480555.868 4848031.803 17947976.827 10 0 59686 7200.00000 0 -19537537.003 4543852.456 15772584.189 10 0 59686 8100.00000 0 -21326889.485 4423742.464 13291163.855 10 0 59686 9000.00000 0 -22799663.069 4451103.191 10551803.186 10 0 59686 9900.00000 0 -23917013.998 4581333.873 7607616.065 10 0 59686 10800.00000 0 -24651713.510 4763932.990 4515718.238 10 0 59686 11700.00000 0 -24989188.790 4944857.349 1336122.456 10 0 59686 12600.00000 0 -24928052.326 5069039.001 -1869425.304 10 0 59686 13500.00000 0 -24480097.058 5082953.184 -5038645.925 10 0 59686 14400.00000 0 -23669757.031 4937127.941 -8109939.956 10 0 59686 15300.00000 0 -22533055.860 4588488.359 -11023589.003 10 0 59686 16200.00000 0 -21116086.927 4002435.084 -13722921.776 10 0 59686 17100.00000 0 -19473089.073 3154567.861 -16155421.570 10 0 59686 18000.00000 0 -17664198.671 2031979.875 -18273752.963 10 0 59686 18900.00000 0 -15752972.579 634066.670 -20036687.409 10 0 59686 19800.00000 0 -13803786.073 -1027186.003 -21409909.402 10 0 59686 20700.00000 0 -11879215.070 -2927449.043 -22366687.332 10 0 59686 21600.00000 0 -10037512.393 -5030822.662 -22888395.943 10 0 59686 22500.00000 0 -8330283.716 -7291103.797 -22964880.275 10 0 59686 23400.00000 0 -6800460.328 -9653496.283 -22594653.984 10 0 59686 24300.00000 0 -5480653.146 -12056693.223 -21784928.279 10 0 59686 25200.00000 0 -4391956.293 -14435245.254 -20551470.862 10 0 59686 26100.00000 0 -3543249.572 -16722116.222 -18918297.598 10 0 59686 27000.00000 0 -2931028.064 -18851319.876 -16917202.885 10 0 59686 27900.00000 0 -2539764.803 -20760527.603 -14587137.798 10 0 59686 28800.00000 0 -2342790.037 -22393538.249 -11973448.203 10 0 59686 29700.00000 0 -2303648.644 -23702506.830 -9126987.817 10 0 59686 30600.00000 0 -2377877.064 -24649838.995 -6103123.725 10 0 59686 31500.00000 0 -2515123.413 -25209672.076 -2960654.220 10 0 59686 32400.00000 0 -2661519.889 -25368881.124 239339.476 10 0 59686 33300.00000 0 -2762205.983 -25127568.307 3434684.681 10 0 59686 34200.00000 0 -2763894.856 -24499015.929 6563328.085 10 0 59686 35100.00000 0 -2617373.483 -23509105.929 9564541.937 10 0 59686 36000.00000 0 -2279830.341 -22195231.178 12380101.868 10 0 59686 36900.00000 0 -1716911.868 -20604745.084 14955413.356 10 0 59686 37800.00000 0 -904420.671 -18793015.212 17240565.205 10 0 59686 38700.00000 0 170416.351 -16821162.822 19191290.163 10 0 59686 39600.00000 0 1508163.531 -14753583.032 20769814.723 10 0 59686 40500.00000 0 3096908.948 -12655348.943 21945582.614 10 0 59686 41400.00000 0 4912525.774 -10589607.419 22695838.962 10 0 59686 42300.00000 0 6919452.269 -8615074.276 23006064.710 10 0 59686 43200.00000 0 9071958.931 -6783732.047 22870253.679 10 0 59686 44100.00000 0 11315851.268 -5138824.937 22291027.430 10 0 59686 45000.00000 0 13590538.566 -3713233.248 21279585.869 10 0 59686 45900.00000 0 15831384.032 -2528293.711 19855494.402 10 0 59686 46800.00000 0 17972239.871 -1593113.893 18046311.252 10 0 59686 47700.00000 0 19948062.934 -904408.405 15887061.420 10 0 59686 48600.00000 0 21697502.972 -446863.119 13419566.544 10 0 59686 49500.00000 0 23165356.236 -194011.627 10691642.605 10 0 59686 50400.00000 0 24304782.270 -109586.894 7756180.155 10 0 59686 51300.00000 0 25079191.230 -149290.981 4670124.123 10 0 59686 52200.00000 0 25463722.429 -262908.097 1493372.392 10 0 59686 53100.00000 0 25446251.583 -396671.513 -1712385.613 10 0 59686 54000.00000 0 25027883.852 -495783.920 -4884867.802 10 0 59686 54900.00000 0 24222911.255 -506984.045 -7962412.182 10 0 59686 55800.00000 0 23058235.561 -381050.142 -10885179.403 10 0 59686 56700.00000 0 21572280.322 -75133.421 -13596321.145 10 0 59686 57600.00000 0 19813437.306 445178.478 -16043091.035 10 0 59686 58500.00000 0 17838112.279 1204156.484 -18177875.881 10 0 59686 59400.00000 0 15708451.968 2214657.000 -19959126.728 10 0 59686 60300.00000 0 13489847.427 3477335.887 -21352171.335 10 0 59686 61200.00000 0 11248318.393 4980384.040 -22329892.046 10 0 59686 62100.00000 0 9047888.069 6699797.087 -22873255.819 10 0 59686 63000.00000 0 6948057.975 8600169.208 -22971686.139 10 0 59686 63900.00000 0 5001488.264 10635978.846 -22623269.570 10 0 59686 64800.00000 0 3251979.993 12753313.449 -21834793.020 10 0 59686 65700.00000 0 1732843.085 14891961.771 -20621610.941 10 0 59686 66600.00000 0 465717.450 16987786.685 -19007345.062 10 0 59686 67500.00000 0 -540104.441 18975279.559 -17023422.433 10 0 59686 68400.00000 0 -1287826.398 20790189.483 -14708460.726 10 0 59686 69300.00000 0 -1792763.862 22372117.220 -12107512.837 10 0 59686 70200.00000 0 -2081443.494 23666965.213 -9271185.638 10 0 59686 71100.00000 0 -2190226.474 24629140.893 -6254650.259 10 0 59686 72000.00000 0 -2163515.115 25223420.842 -3116563.687 10 0 59686 72900.00000 0 -2051620.008 25426397.749 82076.836 10 0 59686 73800.00000 0 -1908379.225 25227449.677 3279123.751 10 0 59686 74700.00000 0 -1788631.373 24629191.407 6412489.629 10 0 59686 75600.00000 0 -1745650.367 23647389.502 9421354.126 10 0 59686 76500.00000 0 -1828651.079 22310345.323 12247343.727 10 0 59686 77400.00000 0 -2080471.733 20657772.547 14835661.180 10 0 59686 78300.00000 0 -2535531.190 18739216.777 17136142.982 10 0 59686 79200.00000 0 -3218147.413 16612083.725 19104224.919 10 0 59686 80100.00000 0 -4141288.013 14339358.494 20701797.599 10 0 59686 81000.00000 0 -5305805.600 11987110.925 21897936.401 10 0 59686 81900.00000 0 -6700190.353 9621890.380 22669492.677 10 0 59686 82800.00000 0 -8300850.705 7308117.630 23001535.651 10 0 59686 83700.00000 0 -10072911.196 5105581.204 22887637.322 10 0 59686 84600.00000 0 -11971495.219 3067140.959 22329995.329 10 0 59686 85500.00000 0 -13943440.320 1236733.084 21339391.625 10 0 59687 0.00000 0 -15929375.656 -352241.762 19934987.776 10 0 59687 900.00000 0 -17866077.455 -1678082.141 18143959.499 10 0 59687 1800.00000 0 -19689002.753 -2731451.777 16000978.796 10 0 59687 2700.00000 0 -21334900.291 -3515523.743 13547550.237 10 0 59687 3600.00000 0 -22744387.633 -4045595.294 10831215.040 10 0 59687 4500.00000 0 -23864388.186 -4348190.906 7904636.780 10 0 59687 5400.00000 0 -24650325.990 -4459691.385 4824585.762 10 0 59687 6300.00000 0 -25067986.006 -4424547.087 1650841.176 10 0 59687 7200.00000 0 -25094961.230 -4293150.842 -1554967.873 10 0 59687 8100.00000 0 -24721625.075 -4119460.817 -4730559.923 10 0 59687 9000.00000 0 -23951587.238 -3958474.305 -7814213.847 10 0 59687 9900.00000 0 -22801612.915 -3863659.962 -10745972.485 10 0 59687 10800.00000 0 -21301007.887 -3884457.997 -13468813.317 10 0 59687 11700.00000 0 -19490494.480 -4063955.076 -15929762.794 10 0 59687 12600.00000 0 -17420625.009 -4436833.376 -18080932.015 10 0 59687 13500.00000 0 -15149798.749 -5027681.670 -19880453.191 10 0 59687 14400.00000 0 -12741965.176 -5849741.014 -21293298.371 10 0 59687 15300.00000 0 -10264109.421 -6904139.165 -22291964.280 10 0 59687 16200.00000 0 -7783624.848 -8179647.211 -22857009.908 10 0 59687 17100.00000 0 -5365682.298 -9652969.807 -22977436.414 10 0 59687 18000.00000 0 -3070705.605 -11289557.851 -22650901.962 10 0 59687 18900.00000 0 -952058.319 -13044910.372 -21883767.370 10 0 59687 19800.00000 0 945962.402 -14866311.777 -20690971.668 10 0 59687 20700.00000 0 2589741.640 -16694932.064 -19095739.954 10 0 59687 21600.00000 0 3957505.809 -18468202.312 -17129129.195 10 0 59687 22500.00000 0 5039977.666 -20122365.980 -14829420.756 10 0 59687 23400.00000 0 5840501.127 -21595098.920 -12241371.553 10 0 59687 24300.00000 0 6374632.214 -22828088.054 -9415338.545 10 0 59687 25200.00000 0 6669214.998 -23769460.246 -6406293.859 10 0 59687 26100.00000 0 6760983.074 -24375959.117 -3272750.193 10 0 59687 27000.00000 0 6694747.248 -24614778.248 -75617.933 10 0 59687 27900.00000 0 6521247.492 -24464973.715 3122983.201 10 0 59687 28800.00000 0 6294761.273 -23918396.736 6260934.183 10 0 59687 29700.00000 0 6070570.525 -22980107.536 9277324.394 10 0 59687 30600.00000 0 5902395.179 -21668253.446 12113633.233 10 0 59687 31500.00000 0 5839902.273 -20013416.782 14714862.511 10 0 59687 32400.00000 0 5926396.147 -18057460.195 17030597.912 10 0 59687 33300.00000 0 6196787.256 -15851918.041 19015979.419 10 0 59687 34200.00000 0 6675925.121 -13456001.005 20632562.573 10 0 59687 35100.00000 0 7377365.542 -10934296.954 21849054.862 10 0 59687 36000.00000 0 8302623.869 -8354263.188 22641913.942 10 0 59687 36900.00000 0 9440945.853 -5783613.604 22995797.061 10 0 59687 37800.00000 0 10769606.111 -3287708.215 22903853.790 10 0 59687 38700.00000 0 12254722.440 -927052.106 22367856.949 10 0 59687 39600.00000 0 13852552.832 1244993.655 21398169.392 10 0 59687 40500.00000 0 15511222.135 3184195.499 20013547.182 10 0 59687 41400.00000 0 17172807.468 4857044.168 18240782.480 10 0 59687 42300.00000 0 18775696.381 6241899.494 16114192.343 10 0 59687 43200.00000 0 20257120.285 7329636.491 13674962.400 10 0 59687 44100.00000 0 21555757.977 8123766.577 10970357.077 10 0 59687 45000.00000 0 22614300.679 8640029.400 8052810.796 10 0 59687 45900.00000 0 23381871.253 8905472.906 4978916.933 10 0 59687 46800.00000 0 23816195.788 8957060.654 1808333.557 10 0 59687 47700.00000 0 23885435.775 8839865.346 -1397373.036 10 0 59687 48600.00000 0 23569602.982 8604925.140 -4575924.527 10 0 59687 49500.00000 0 22861496.481 8306853.741 -7665543.094 10 0 59687 50400.00000 0 21767121.236 8001305.845 -10606156.084 10 0 59687 51300.00000 0 20305569.506 7742405.825 -13340568.904 10 0 59687 52200.00000 0 18508368.886 7580249.274 -15815582.725 10 0 59687 53100.00000 0 16418323.458 7558583.948 -17983034.603 10 0 59687 54000.00000 0 14087895.795 7712769.151 -19800739.359 10 0 59687 54900.00000 0 11577196.931 8068100.762 -21233314.597 10 0 59687 55800.00000 0 8951667.959 8638573.612 -22252872.525 10 0 59687 56700.00000 0 6279549.690 9426134.363 -22839565.111 10 0 59687 57600.00000 0 3629245.664 10420457.313 -22981971.964 10 0 59687 58500.00000 0 1066688.222 11599253.350 -22677323.400 10 0 59687 59400.00000 0 -1347182.976 12929099.813 -21931554.434 10 0 59687 60300.00000 0 -3558725.386 14366756.969 -20759188.614 10 0 59687 61200.00000 0 -5523585.457 15860916.200 -19183053.973 10 0 59687 62100.00000 0 -7208295.701 17354306.710 -17233836.556 10 0 59687 63000.00000 0 -8591411.304 18786072.348 -14949480.164 10 0 59687 63900.00000 0 -9664139.896 20094318.526 -12374444.091 10 0 59687 64800.00000 0 -10430439.603 21218721.958 -9558833.399 10 0 59687 65700.00000 0 -10906582.838 22103093.161 -6557418.908 10 0 59687 66600.00000 0 -11120205.844 22697783.527 -3428566.479 10 0 59687 67500.00000 0 -11108885.764 22961835.379 -233096.896 10 0 59687 68400.00000 0 -10918306.897 22864784.294 2966900.847 10 0 59687 69300.00000 0 -10600095.050 22388037.717 6109279.106 10 0 59687 70200.00000 0 -10209412.778 21525771.937 9133039.990 10 0 59687 71100.00000 0 -9802418.116 20285309.821 11979518.799 10 0 59687 72000.00000 0 -9433694.839 18686963.652 14593519.336 10 0 59687 72900.00000 0 -9153763.122 16763349.844 16924379.280 10 0 59687 73800.00000 0 -9006775.685 14558204.232 18926945.468 10 0 59687 74700.00000 0 -9028496.374 12124747.424 20562440.828 10 0 59687 75600.00000 0 -9244645.988 9523668.025 21799207.144 10 0 59687 76500.00000 0 -9669684.631 6820807.070 22613310.270 10 0 59687 77400.00000 0 -10306081.509 4084639.189 22988996.985 10 0 59687 78300.00000 0 -11144102.834 1383653.917 22918995.524 10 0 59687 79200.00000 0 -12162126.989 -1216255.475 22404654.480 10 0 59687 80100.00000 0 -13327474.281 -3654288.646 21455917.647 10 0 59687 81000.00000 0 -14597717.361 -5877018.232 20091135.196 10 0 59687 81900.00000 0 -15922418.441 -7840360.005 18336714.342 10 0 59687 82800.00000 0 -17245221.597 -9511152.411 16226615.586 10 0 59687 83700.00000 0 -18506213.578 -10868280.858 13801703.343 10 0 59687 84600.00000 0 -19644454.999 -11903300.699 11108962.498 10 0 59687 85500.00000 0 -20600576.310 -12620533.494 8200595.179 10 0 59688 0.00000 0 -21319329.768 -13036633.011 5133014.673 10 0 59688 900.00000 0 -21751990.329 -13179639.721 1965753.730 10 0 59688 1800.00000 0 -21858503.096 -13087563.319 -1239687.625 10 0 59688 2700.00000 0 -21609287.363 -12806554.082 -4421037.992 10 0 59688 3600.00000 0 -20986619.180 -12388739.935 -7516466.575 10 0 59688 4500.00000 0 -19985533.397 -11889821.288 -10465788.841 10 0 59688 5400.00000 0 -18614205.759 -11366525.811 -13211641.559 10 0 59688 6300.00000 0 -16893797.621 -10874031.406 -15700603.796 10 0 59688 7200.00000 0 -14857768.538 -10463467.041 -17884241.392 10 0 59688 8100.00000 0 -12550684.461 -10179597.848 -19720054.169 10 0 59688 9000.00000 0 -10026570.425 -10058793.057 -21172307.131 10 0 59688 9900.00000 0 -7346875.972 -10127363.281 -22212729.208 10 0 59688 10800.00000 0 -4578137.605 -10400338.030 -22821065.928 10 0 59688 11700.00000 0 -1789435.277 -10880735.602 -22985475.280 10 0 59688 12600.00000 0 950251.398 -11559356.669 -22702759.040 10 0 59688 13500.00000 0 3574677.550 -12415110.702 -21978425.161 10 0 59688 14400.00000 0 6022848.789 -13415861.870 -20826579.983 10 0 59688 15300.00000 0 8241313.953 -14519759.015 -19269652.323 10 0 59688 16200.00000 0 10186139.971 -15676993.847 -17337954.808 10 0 59688 17100.00000 0 11824487.323 -16831913.308 -15069090.895 10 0 59688 18000.00000 0 13135721.219 -17925396.968 -12507219.220 10 0 59688 18900.00000 0 14112013.292 -18897399.016 -9702189.708 10 0 59688 19800.00000 0 14758410.051 -19689547.348 -6708568.495 10 0 59688 20700.00000 0 15092366.707 -20247689.718 -3584571.137 10 0 59688 21600.00000 0 15142767.759 -20524279.220 -390925.363 10 0 59688 22500.00000 0 14948477.205 -20480498.106 2810313.917 10 0 59688 23400.00000 0 14556481.123 -20088030.150 5956973.616 10 0 59688 24300.00000 0 14019702.428 -19330406.734 8987971.465 10 0 59688 25200.00000 0 13394581.165 -18203869.880 11844501.226 10 0 59688 26100.00000 0 12738523.342 -16717715.957 14471170.842 10 0 59688 27000.00000 0 12107326.383 -14894105.628 16817071.723 10 0 59688 27900.00000 0 11552689.901 -12767347.835 18836758.847 10 0 59688 28800.00000 0 11119916.460 -10382687.631 20491123.379 10 0 59688 29700.00000 0 10845898.679 -7794647.957 21748141.833 10 0 59688 30600.00000 0 10757476.777 -5064993.764 22583488.284 10 0 59688 31500.00000 0 10870235.004 -2260402.311 22980998.707 10 0 59688 32400.00000 0 11187787.041 550064.806 22932979.312 10 0 59688 33300.00000 0 11701580.160 3297584.317 22440353.487 10 0 59688 34200.00000 0 12391226.378 5916181.252 21512644.731 10 0 59688 35100.00000 0 13225347.110 8345219.443 20167795.864 10 0 59688 36000.00000 0 14162896.523 10531670.670 18431827.509 10 0 59688 36900.00000 0 15154908.856 12432069.369 16338341.798 10 0 59688 37800.00000 0 16146597.295 14014072.724 13927879.976 10 0 59688 38700.00000 0 17079717.059 15257562.032 11247145.292 10 0 59688 39600.00000 0 17895094.016 16155239.905 8348105.341 10 0 59688 40500.00000 0 18535212.855 16712698.873 5286990.410 10 0 59688 41400.00000 0 18946755.861 16947958.765 2123206.600 10 0 59688 42300.00000 0 19082984.965 16890492.536 -1081815.388 10 0 59688 43200.00000 0 18905865.984 16579781.750 -4265813.554 10 0 59688 44100.00000 0 18387844.405 16063462.831 -7366906.553 10 0 59688 45000.00000 0 17513196.589 15395142.593 -10324800.247 10 0 59688 45900.00000 0 16278897.989 14631975.696 -13081964.860 10 0 59688 46800.00000 0 14694970.296 13832106.835 -15584759.218 10 0 59688 47700.00000 0 12784291.403 13052086.275 -17784479.584 10 0 59688 48600.00000 0 10581874.764 12344368.474 -19638312.212 10 0 59688 49500.00000 0 8133647.036 11754999.964 -21110170.749 10 0 59688 50400.00000 0 5494774.151 11321594.615 -22171401.933 10 0 59688 51300.00000 0 2727604.846 11071682.118 -22801345.795 10 0 59688 52200.00000 0 -100683.305 11021499.666 -22987739.462 10 0 59688 53100.00000 0 -2920637.685 11175278.009 -22726956.713 10 0 59688 54000.00000 0 -5663178.445 11525052.113 -22024078.708 10 0 59688 54900.00000 0 -8262230.523 12051004.443 -20892794.489 10 0 59688 55800.00000 0 -10657230.636 12722326.361 -19355133.199 10 0 59688 56700.00000 0 -12795405.375 13498561.202 -17441033.182 10 0 59688 57600.00000 0 -14633726.050 14331372.160 -15187756.312 10 0 59688 58500.00000 0 -16140459.424 15166660.097 -12639158.990 10 0 59688 59400.00000 0 -17296250.511 15946941.481 -9844834.152 10 0 59688 60300.00000 0 -18094693.314 16613885.600 -6859141.186 10 0 59688 61200.00000 0 -18542366.858 17110903.347 -3740143.124 10 0 59688 62100.00000 0 -18658336.582 17385677.735 -548472.294 10 0 59688 63000.00000 0 -18473143.624 17392528.734 2653852.926 10 0 59688 63900.00000 0 -18027326.129 17094512.207 5804636.513 10 0 59688 64800.00000 0 -17369536.385 16465164.017 8842714.417 10 0 59688 65700.00000 0 -16554334.428 15489815.561 11709141.485 10 0 59688 66600.00000 0 -15639752.080 14166425.178 14348332.467 10 0 59688 67500.00000 0 -14684730.752 12505890.335 16709135.147 10 0 59688 68400.00000 0 -13746541.106 10531827.233 18745815.230 10 0 59688 69300.00000 0 -12878293.085 8279826.782 20418934.593 10 0 59688 70200.00000 0 -12126640.523 5796217.513 21696106.774 10 0 59688 71100.00000 0 -11529776.100 3136386.216 22552616.140 10 0 59688 72000.00000 0 -11115800.009 362725.333 22971889.640 10 0 59688 72900.00000 0 -10901529.969 -2457708.811 22945812.902 10 0 59688 73800.00000 0 -10891801.833 -5255731.129 22474885.153 10 0 59688 74700.00000 0 -11079289.689 -7962652.423 21568210.208 10 0 59688 75600.00000 0 -11444852.838 -10512886.279 20243323.656 10 0 59688 76500.00000 0 -11958395.230 -12846431.451 18525859.148 10 0 59688 77400.00000 0 -12580201.719 -14911127.883 16449059.553 10 0 59688 78300.00000 0 -13262695.552 -16664593.700 14053141.530 10 0 59688 79200.00000 0 -13952543.892 -18075763.358 11384524.808 10 0 59688 80100.00000 0 -14593023.320 -19125963.333 8494940.140 10 0 59688 81000.00000 0 -15126546.109 -19809480.813 5440432.408 10 0 59688 81900.00000 0 -15497240.903 -20133601.771 2280277.517 10 0 59688 82800.00000 0 -15653478.703 -20118116.904 -924166.130 10 0 59688 83700.00000 0 -15550236.986 -19794316.262 -4110649.374 10 0 59688 84600.00000 0 -15151201.225 -19203514.977 -7217243.909 10 0 59688 85500.00000 0 -14430513.893 -18395172.347 -10183549.671 10 0 59689 0.00000 0 -13374095.815 -17424683.927 -12951873.779 10 0 59689 900.00000 0 -11980481.941 -16350939.562 -15468358.931 10 0 59689 1800.00000 0 -10261136.224 -15233752.133 -17684034.971 10 0 59689 2700.00000 0 -8240228.856 -14131264.201 -19555777.692 10 0 59689 3600.00000 0 -5953885.034 -13097443.577 -21047152.074 10 0 59689 4500.00000 0 -3448934.893 -12179773.312 -22129124.818 10 0 59689 5400.00000 0 -781215.816 -11417233.750 -22780632.013 10 0 59689 6300.00000 0 1986502.987 -10838661.800 -22988990.855 10 0 59689 7200.00000 0 4786887.766 -10461556.508 -22750147.434 10 0 59689 8100.00000 0 7550601.368 -10291381.124 -22068755.827 10 0 59689 9000.00000 0 10208952.095 -10321390.750 -20958086.960 10 0 59689 9900.00000 0 12696520.246 -10532992.530 -19439768.980 10 0 59689 10800.00000 0 14953653.430 -10896622.703 -17543364.177 10 0 59689 11700.00000 0 16928727.024 -11373103.033 -15305790.616 10 0 59689 12600.00000 0 18580075.949 -11915418.760 -12770599.833 10 0 59689 13500.00000 0 19877517.773 -12470842.360 -9987124.744 10 0 59689 14400.00000 0 20803404.296 -12983312.691 -7009514.608 10 0 59689 15300.00000 0 21353158.589 -13395968.247 -3895676.285 10 0 59689 16200.00000 0 21535276.231 -13653726.727 -706142.894 10 0 59689 17100.00000 0 21370792.100 -13705801.211 2497107.552 10 0 59689 18000.00000 0 20892236.570 -13508046.018 5651859.845 10 0 59689 18900.00000 0 20142126.495 -13025032.686 8696871.642 10 0 59689 19800.00000 0 19171055.798 -12231768.071 11573062.037 10 0 59689 20700.00000 0 18035467.107 -11114981.886 14224655.312 10 0 59689 21600.00000 0 16795198.975 -9673929.200 16600257.872 10 0 59689 22500.00000 0 15510912.199 -7920673.900 18653847.925 10 0 59689 23400.00000 0 14241503.377 -5879840.860 20345659.347 10 0 59689 24300.00000 0 13041613.927 -3587846.633 21642943.558 10 0 59689 25200.00000 0 11959338.307 -1091640.007 22520595.647 10 0 59689 26100.00000 0 11034226.636 1552996.008 22961633.577 10 0 59689 27000.00000 0 10295664.336 4283511.347 22957522.077 10 0 59689 27900.00000 0 9761695.654 7032940.711 22508335.558 10 0 59689 28800.00000 0 9438339.515 9732443.812 21622757.176 10 0 59689 29700.00000 0 9319425.699 12313930.176 20317914.039 10 0 59689 30600.00000 0 9386957.869 14712661.035 18619051.308 10 0 59689 31500.00000 0 9611988.173 16869721.447 16559050.826 10 0 59689 32400.00000 0 9955966.860 18734261.041 14177802.706 10 0 59689 33300.00000 0 10372510.496 20265410.898 11521440.974 10 0 59689 34200.00000 0 10809514.764 21433797.122 8641457.180 10 0 59689 35100.00000 0 11211523.120 22222588.233 5593708.266 10 0 59689 36000.00000 0 11522251.531 22628032.594 2437337.275 10 0 59689 36900.00000 0 11687162.596 22659463.262 -766372.432 10 0 59689 37800.00000 0 11655979.846 22338769.974 -3955187.302 10 0 59689 38700.00000 0 11385035.217 21699360.302 -7067134.756 10 0 59689 39600.00000 0 10839349.415 20784653.661 -10041711.356 10 0 59689 40500.00000 0 9994355.953 19646171.615 -12821063.948 10 0 59689 41400.00000 0 8837194.514 18341305.077 -15351120.211 10 0 59689 42300.00000 0 7367517.499 16930852.729 -17582645.952 10 0 59689 43200.00000 0 5597774.077 15476434.631 -19472208.115 10 0 59689 44100.00000 0 3552958.125 14037890.228 -20983024.394 10 0 59689 45000.00000 0 1269829.145 12670770.555 -22085682.632 10 0 59689 45900.00000 0 -1204362.602 11424030.277 -22758715.928 10 0 59689 46800.00000 0 -3813594.657 10338016.639 -22989022.267 10 0 59689 47700.00000 0 -6495163.720 9442839.767 -22772120.485 10 0 59689 48600.00000 0 -9182063.372 8757192.496 -22112237.685 10 0 59689 49500.00000 0 -11805549.648 8287668.874 -21022226.397 10 0 59689 50400.00000 0 -14297787.881 8028609.409 -19523313.086 10 0 59689 51300.00000 0 -16594470.885 7962478.824 -17644682.898 10 0 59689 52200.00000 0 -18637299.607 8060759.547 -15422908.648 10 0 59689 53100.00000 0 -20376222.987 8285322.385 -12901235.263 10 0 59689 54000.00000 0 -21771343.879 8590215.563 -10128733.686 10 0 59689 54900.00000 0 -22794411.896 8923795.592 -7159340.952 10 0 59689 55800.00000 0 -23429841.314 9231108.940 -4050805.567 10 0 59689 56700.00000 0 -23675212.329 9456422.870 -863559.196 10 0 59689 57600.00000 0 -23541235.705 9545797.523 2340462.799 10 0 59689 58500.00000 0 -23051183.514 9449589.748 5499028.346 10 0 59689 59400.00000 0 -22239811.193 9124782.183 8550819.190 10 0 59689 60300.00000 0 -21151817.463 8537038.701 11436621.085 10 0 59689 61200.00000 0 -19839907.941 7662399.125 14100470.290 10 0 59689 62100.00000 0 -18362544.631 6488541.483 16490734.267 10 0 59689 63000.00000 0 -16781476.299 5015558.367 18561106.098 10 0 59689 63900.00000 0 -15159153.452 3256214.483 20271493.917 10 0 59689 64800.00000 0 -13556135.998 1235674.053 21588789.099 10 0 59689 65700.00000 0 -12028601.464 -1009291.256 22487499.311 10 0 59689 66600.00000 0 -10626057.125 -3431581.688 22950235.130 10 0 59689 67500.00000 0 -9389350.574 -5975483.932 22968041.689 10 0 59689 68400.00000 0 -8349060.666 -8578750.850 22540569.576 10 0 59689 69300.00000 0 -7524334.979 -11174961.388 21676081.951 10 0 59689 70200.00000 0 -6922221.390 -13696064.158 20391297.746 10 0 59689 71100.00000 0 -6537520.925 -16075000.548 18711073.559 10 0 59689 72000.00000 0 -6353167.614 -18248299.577 16667929.753 10 0 59689 72900.00000 0 -6341119.100 -20158537.713 14301429.020 10 0 59689 73800.00000 0 -6463720.609 -21756562.068 11657418.420 10 0 59689 74700.00000 0 -6675484.997 -23003384.683 8787148.657 10 0 59689 75600.00000 0 -6925214.061 -23871669.069 5746286.734 10 0 59689 76500.00000 0 -7158371.651 -24346746.739 2593840.516 10 0 59689 77400.00000 0 -7319608.339 -24427120.887 -608984.295 10 0 59689 78300.00000 0 -7355330.552 -24124435.759 -3799972.634 10 0 59689 79200.00000 0 -7216204.922 -23462912.627 -6917110.786 10 0 59689 80100.00000 0 -6859491.011 -22478275.741 -9899795.278 10 0 59689 81000.00000 0 -6251102.597 -21216213.257 -12690015.933 10 0 59689 81900.00000 0 -5367308.976 -19730437.775 -15233489.465 10 0 59689 82800.00000 0 -4196002.909 -18080428.145 -17480720.904 10 0 59689 83700.00000 0 -2737480.104 -16328947.644 -19387971.702 10 0 59689 84600.00000 0 -1004695.692 -14539443.014 -20918115.337 10 0 59689 85500.00000 0 977014.610 -12773433.843 -22041363.458 99